Regional Weather Roundup
Issued by NWS Portland, ME

Home | Current Version | Previous Version | Text Only | Print | Product List | Glossary On
Versions: 1 2 3 4 5 6 7 8 9 10 11 12 13 14 15 16 17 18 19 20 21 22 23 24 25 26 27 28 29 30 31 32 33 34 35 36 37 38 39 40 41 42 43 44 45 46 47 48 49 50
000
ASUS41 KGYX 300905
RWRGYX
WEATHER ROUNDUP FOR MAINE AND NEW HAMPSHIRE
NATIONAL WEATHER SERVICE GRAY ME
500 AM EDT SAT MAY 30 2015

MEZ002-005-006-010-012-015-018-020-021-024-026-027-029-301000-
MAINE

CITY           SKY/WX    TMP DP  RH WIND       PRES   REMARKS
PORTLAND       FOG       55  54  96 S3        30.18S VSB 1/2
SANFORD        CLOUDY    55  52  88 SW3       30.18S VSB 1/2
BAR HARBOR     CLOUDY    55  55 100 S5        30.17F VSB 1/4
WISCASSET      FOG       57  56  96 S3        30.18F VSB 3/4
ROCKLAND       CLOUDY    57  55  94 S3        30.16F VSB 1/4
FRYEBURG       FOG       53  53 100 CALM      30.16F VSB 1/4
LEWISTONAUBURN CLOUDY    57  55  94 S5        30.17S
AUGUSTA        CLOUDY    57  56  96 VRB3      30.17S FOG
WATERVILLE     CLOUDY    57  54  88 S5        30.14S
BANGOR         CLOUDY    59  57  93 S6        30.16F
GREENVILLE       N/A     56  56 100 VRB3      30.11F
MILLINOCKET    CLOUDY    60  57  89 VRB3      30.13F
HOULTON        MOCLDY    58  56  93 S9        30.10S
PRESQUE ISLE   CLEAR     57  54  88 SE6       30.07F
FRENCHVILLE    CLOUDY    57  56  96 S5        30.04F FOG
CARIBOU        CLEAR     58  56  93 S8        30.06F
$$

NHZ002-005-008-009-011-012-014-301000-
NEW HAMPSHIRE

CITY           SKY/WX    TMP DP  RH WIND       PRES   REMARKS
PORTSMOUTH     FOG       53  52  97 CALM      30.17S VSB 1/4
ROCHESTER      FOG       57  55  93 CALM      30.17S VSB 1/4
NASHUA         CLEAR     58  57  96 CALM      30.19R
MANCHESTER     PTCLDY    60  57  89 S3        30.16S
CONCORD        CLEAR     58  56  93 CALM      30.17S
LACONIA        CLEAR     57  54  88 CALM      30.15S
PLYMOUTH       MOCLDY    53  53 100 CALM      30.17S FOG
BERLIN         MOCLDY    48  46  93 SE3       30.13F
WHITEFIELD     PTCLDY    51  48  89 CALM      30.13F
JAFFREY        CLEAR     56  55  97 S6        30.20S
KEENE          CLEAR     55  54  94 CALM      30.19S
LEBANON        CLEAR     57  55  93 CALM      30.14S FOG
MT WASHINGTON  PTCLDY    48  43  81 W39         N/A
$$

VTZ005-007-008-301000-
VERMONT

CITY           SKY/WX    TMP DP  RH WIND       PRES   REMARKS
ST JOHNSBURY     N/A     57  53  86 MISG      30.10F
MONTPELIER     CLEAR     62  56  80 S6        30.15F
BURLINGTON     CLOUDY    71  56  58 S17G25    30.05S
$$

MAZ007-012-024-CTZ003-RIZ002-NYZ038-NYZ072-301000-
SOUTHERN NEW ENGLAND AND NY

CITY           SKY/WX    TMP DP  RH WIND       PRES   REMARKS
BOSTON         CLEAR     59  56  89 CALM      30.19S
WORCESTER      CLEAR     59  54  83 W9        30.20S
NANTUCKET      CLOUDY    62  60  93 SW8       30.23S FOG
PROVIDENCE     FOG       57  56  96 SW7       30.22S VSB 1/2
HARTFORD       PTCLDY    60  57  89 S6        30.19R
ALBANY         PTCLDY    67  56  67 S9        30.14S
NEW YORK CITY  CLEAR     67  61  81 S7        30.19S
$$

ANZ081-ANZ082-ANZ150-NHZ014-MEZ023>029-301000-
COASTAL MARINE OBSERVATIONS

STATION/POSITION TIME  TEMP    WIND        PRES    WAVE
                       AIR SEA DIR/SP/G            HT/PER
                 (UTC) (F)     (DEG/KT/KT) (MB)    (FT/S)
MOUNT DESERT ROC 0900   48     180/ 13/ 14   N/A
MATINICUS ROCK   0800   53     230/  9/ 10   N/A
ISLE OF SHOALS   0800   54     150/  9/  9   N/A
JEFFREYS LEDGE   0803      51                N/A     2/ 9
CASHES LEDGE BUO 0850   51 52                N/A     2/ 8
GEORGES BANK BUO 0750   59 52  190/  4/  4   N/A     4/10
$$

.............KEY..............
   WCI - WIND CHILL
   TC  - TEMPERATURE IN CELSIUS
   VSB - VISIBILITY IN MILES
   HX  - HEAT INDEX
   FAIR- INDICATES FEW OR NO CLOUDS BELOW 12,000 FT, WITH NO
         SIGNIFICANT WEATHER AND/OR OBSTRUCTIONS TO VISIBILITY.




USA.gov is the U.S. government's official web portal to all federal, state and local government web resources and services.